Regional Weather Roundup
Issued by NWS

Home | Current Version | Previous Version | Text Only | Print | Product List | Glossary Off
Versions: 1 2 3 4 5 6 7 8 9 10 11 12 13 14 15 16 17 18 19 20 21 22 23 24 25 26 27 28 29 30 31 32 33 34 35 36 37 38 39 40 41 42 43 44 45 46 47 48 49 50

000
ASUS43 KLMK 280902
RWRKY
KENTUCKY REGIONAL WEATHER ROUNDUP
NATIONAL WEATHER SERVICE LOUISVILLE KY
500 AM EDT THU JUL 28 2016

NOTE "FAIR" INDICATES FEW OR NO CLOUDS BELOW 12,000 FEET
WITH NO SIGNIFICANT WEATHER AND/OR OBSTRUCTIONS TO VISIBILITY.

KYZ001>023-026-027-061>063-070>075-281000-
WESTERN AND SOUTH CENTRAL KENTUCKY

CITY           SKY/WX    TMP DP  RH WIND       PRES   REMARKS
PADUCAH        CLOUDY    74  71  91 CALM      29.89S
HENDERSON      NOT AVBL
OWENSBORO      CLOUDY    73  73 100 CALM      29.92R
HOPKINSVILLE   TSTM      72  72 100 SE7       29.91F FOG
BOWLING GREEN  CLOUDY    76  73  91 S3        29.92S
GLASGOW        NOT AVBL
$$

KYZ024-025-028>034-038-045-046-053-281000-
NORTH CENTRAL KENTUCKY

CITY           SKY/WX    TMP DP  RH WIND       PRES   REMARKS
LOUISVILLE/SDF LGT RAIN  76  72  87 SE7       29.90S
LOUISVILLE/LOU LGT RAIN  74  72  93 CALM      29.90F
FORT KNOX      LGT RAIN  73  72  94 SW2       29.90R
$$

KYZ035>037-039>044-047>052-055>060-089>105-281000-
NORTHEAST KENTUCKY

CITY           SKY/WX    TMP DP  RH WIND       PRES   REMARKS
LEXINGTON      HVY RAIN  72  70  93 W3        29.97R FOG
COVINGTON      CLOUDY    75  74  96 CALM      29.91S THUNDER
FRANKFORT      RAIN      72  70  93 E8        29.92F
$$

KYZ054-064>069-076>088-106>120-281000-
SOUTHEAST KENTUCKY

CITY           SKY/WX    TMP DP  RH WIND       PRES   REMARKS
JACKSON        MOCLDY    69  68  96 CALM      29.97S FOG
LONDON         PTCLDY    71  67  87 S3        29.97S
SOMERSET       CLOUDY    70  70 100 CALM      29.97R
MIDDLESBORO    CLOUDY    71  70  96 CALM      30.00S
MONTICELLO     PTSUNNY  N/A N/A N/A N8        29.97S
$$




USA.gov is the U.S. government's official web portal to all federal, state and local government web resources and services.